Find Starlink 5316

NORAD ID: 55305 Int'l Des: 2023-010 Owner: SPXS Country: US Constellation: starlink operational
LEOCIRCULAR

Live Position

Loading 3D Globe...

About Starlink 5316

Description loading...

Upcoming Passes

Passes for default location (London). Set your location on the main map for personalized predictions.

Altitude History

Loading altitude history...

Two-Line Element Set

1 55305U 23010AN 26104.93439635 .00007097 00000-0 60269-3 0 9998
2 55305 69.9984 293.2542 0002327 269.9909 90.0983 14.98287378178709
Epoch: Apr 14, 2026 • Age: 10 hours

Current Status

Altitude 579.4 km
Velocity 7.57 km/s
Sub-Earth Point 44.12°N, 14.5°W
Launch Date Jan 19, 2023
Age 3.2 years
Type internet

Technical Details

Classification Payload
Mass 305.00 kg
Dry Mass 290.00 kg
Total Mass 305.00 kg
Length 0.20 m
Diameter 2.80 m
Span 9.00 m
Shape Box + pan
Manufacturer SPXS
Bus Type Starlink
Phase Status In Orbit
Owner/State SPXS/US

Most Searched